Regional Weather Roundup
Issued by NWS State College, PA

Home | Current Version | Previous Version | Text Only | Print | Product List | Glossary Off
Versions: 1 2 3 4 5 6 7 8 9 10 11 12 13 14 15 16 17 18 19 20 21 22 23 24 25 26 27 28 29 30 31 32 33 34 35 36 37 38 39 40 41 42 43 44 45 46 47 48 49 50

000
ASUS41 KCTP 311803
RWRCTP

REGIONAL WEATHER ROUNDUP
NATIONAL WEATHER SERVICE STATE COLLEGE PA
200 PM EDT TUE MAY 31 2016

Note: "fair" indicates few or no clouds below 12,000 feet with no
significant weather and/or obstructions to visibility.

* = STATION THAT DOES NOT REPORT PRECIPITATION /E.G. RAIN...SNOW...ETC/
    THUNDER OR FOG.

PAZ002>004-007>009-013>016-020>023-029>032-311900-
WESTERN PENNSYLVANIA

CITY           SKY/WX    TMP DP  RH WIND       PRES   REMARKS
ERIE           CLOUDY    78  56  46 N8        30.03F
MEADVILLE      CLOUDY    78  58  49 VRB7      30.04F
FRANKLIN*      CLOUDY    79  54  41 NW5       30.06S
NEW CASTLE     MOCLDY    81  58  45 N7        30.01F
BEAVER COUNTY  PTSUNNY   82  59  44 SW5       30.02F
BUTLER*        MOSUNNY   81  57  44 SW3       30.05S
PITTSBURGH INT PTSUNNY   83  52  34 VRB5      30.01F
PITTSBURGH     MOSUNNY   82  56  40 VRB6      30.01F
INDIANA*       PTSUNNY   82  57  42 NW8       30.06F
LATROBE        PTSUNNY   81  55  41 CALM      30.03F
WASHINGTON CO* MOSUNNY   82  57  42 NW5       30.02F
$$

PAZ004>006-010>012-017>019-024>028-033>037-041-042-045-046-049>053-311900-
CENTRAL PENNSYLVANIA

CITY           SKY/WX    TMP DP  RH WIND       PRES   REMARKS
BRADFORD       CLOUDY    77  50  38 W10G16    30.05F
DUBOIS         MOSUNNY   76  51  41 W8        30.04F
CLEARFIELD     MOSUNNY   83  51  33 W7        30.03S
JOHNSTOWN      MOSUNNY   77  46  33 NW7       30.06F
ALTOONA        MOSUNNY   82  50  32 VRB3      30.03F
STATE COLLEGE  MOSUNNY   81  52  36 NW6       30.00F
WILLIAMSPORT   MOSUNNY   85  54  34 NW9       29.96F
SELINSGROVE    MOSUNNY   82  59  45 MISG      29.98F
FT INDIANTOWN  NOT AVBL
CAPITAL CITY   SUNNY     85  57  38 W8        29.97F
HARRISBURG     MOSUNNY   84  60  44 VRB3      29.97F
YORK           SUNNY     82  58  43 N3        29.99F
$$

PAZ038>040-043-044-047-048-054-055-060>062-067>071-311900-
EASTERN PENNSYLVANIA

CITY           SKY/WX    TMP DP  RH WIND       PRES   REMARKS
SCRANTON       SUNNY     82  55  39 N9        29.98F
MOUNT POCONO   NOT AVBL
ALLENTOWN      SUNNY     84  56  38 W5        29.96F
QUAKERTOWN*    CLEAR     82  55  39 CALM      29.98F
READING        SUNNY     84  54  35 CALM      29.96F
LANCASTER      MOSUNNY   83  53  35 VRB5      29.97F
COATESVILLE    CLEAR     82  55  39 CALM      29.99F
POTTSTOWN      SUNNY     82  54  37 NW3       29.98F
BLUE BELL      SUNNY     81  57  44 E3        29.96F
DOYLESTOWN     SUNNY     83  51  33 VRB5      29.96F
WILLOW GROVE   NOT AVBL
NORTH PHILA    PTSUNNY   85  62  46 N10       29.96F
PHILADELPHIA   MOSUNNY   87  57  35 NE7       29.94F
$$




USA.gov is the U.S. government's official web portal to all federal, state and local government web resources and services.